G7NPW-1 Weather Reports


time (UTC)temp
C
wind
direction
speed
KPH
gust
KPH
rain 1hr
cm
rain 24hr
cm
rain mn
cm
humidity
%
barometer
mb
20260906210504 22 190 20.9 20.9 0.00 0.00 0.00 46 1014.9
20260906205504 22 170 12.9 12.9 0.00 0.00 0.00 49 1014.9
20260906205004 22 170 12.9 12.9 0.00 0.00 0.00 49 1014.9
20260906204504 22 170 12.9 12.9 0.00 0.00 0.00 49 1014.9
20260906201504 22 170 12.9 12.9 0.00 0.00 0.00 49 1014.9
20260906201004 22 170 12.9 12.9 0.00 0.00 0.00 49 1014.9
20260906200504 22 170 12.9 12.9 0.00 0.00 0.00 49 1014.9
20260906200004 22 170 12.9 12.9 0.00 0.00 0.00 49 1014.9
20260906194004 22 200 12.9 12.9 0.00 0.00 0.00 49 1014.9
20260906192004 22 200 12.9 12.9 0.00 0.00 0.00 49 1014.9
20260906191004 22 200 12.9 12.9 0.00 0.00 0.00 49 1014.9
20260906190504 22 200 12.9 12.9 0.00 0.00 0.00 49 1014.9
20260906190004 22 200 12.9 12.9 0.00 0.00 0.00 49 1014.9
20260906185004 23 150 11.3 11.3 0.00 0.00 0.00 46 1014.9
20260906184504 23 150 11.3 11.3 0.00 0.00 0.00 46 1014.9
20260906181005 23 150 11.3 11.3 0.00 0.00 0.00 46 1014.9
20260906180004 23 150 11.3 11.3 0.00 0.00 0.00 46 1014.9
20260906175504 23 170 11.3 11.3 0.00 0.00 0.00 46 1014.9
20260906174004 23 170 11.3 11.3 0.00 0.00 0.00 46 1014.9
20260906173004 23 170 11.3 11.3 0.00 0.00 0.00 46 1014.9
20260906172504 23 170 11.3 11.3 0.00 0.00 0.00 46 1014.9
20260906171504 23 170 11.3 11.3 0.00 0.00 0.00 46 1014.9
20260906171004 23 170 11.3 11.3 0.00 0.00 0.00 46 1014.9
20260906170504 23 170 11.3 14.5 0.00 0.00 0.00 46 1014.9
20260906170004 23 170 11.3 14.5 0.00 0.00 0.00 46 1014.9
20260906165504 23 200 14.5 14.5 0.00 0.00 0.00 43 1015.9
20260906165004 23 200 14.5 14.5 0.00 0.00 0.00 43 1015.9
20260906164004 23 200 14.5 14.5 0.00 0.00 0.00 43 1015.9
20260906163004 23 200 14.5 14.5 0.00 0.00 0.00 43 1015.9
20260906162503 23 200 14.5 14.5 0.00 0.00 0.00 43 1015.9
20260906162003 23 200 14.5 14.5 0.00 0.00 0.00 43 1015.9
20260906155504 22 200 22.5 22.5 0.00 0.00 0.00 46 1016.9
20260906154504 22 200 22.5 22.5 0.00 0.00 0.00 46 1016.9
20260906154004 22 200 22.5 22.5 0.00 0.00 0.00 46 1016.9
20260906152504 22 200 22.5 22.5 0.00 0.00 0.00 46 1016.9
20260906152004 22 200 22.5 22.5 0.00 0.00 0.00 46 1016.9
20260906151505 22 200 22.5 22.5 0.00 0.00 0.00 46 1016.9
20260906150504 22 200 22.5 22.5 0.00 0.00 0.00 46 1016.9
20260906142004 22 180 22.5 22.5 0.00 0.00 0.00 49 1017.9
20260906141004 22 180 22.5 22.5 0.00 0.00 0.00 49 1017.9
20260906140005 22 180 22.5 22.5 0.00 0.00 0.00 49 1017.9
20260906135504 18 160 12.9 12.9 0.00 0.00 0.00 72 1019.0
20260906135004 18 160 12.9 12.9 0.00 0.00 0.00 72 1019.0
20260906134004 18 160 12.9 12.9 0.00 0.00 0.00 72 1019.0
20260906133504 18 160 12.9 12.9 0.00 0.00 0.00 72 1019.0
20260906133004 18 160 12.9 12.9 0.00 0.00 0.00 72 1019.0
20260906132004 18 160 12.9 12.9 0.00 0.00 0.00 72 1019.0
20260906131504 18 160 12.9 12.9 0.00 0.00 0.00 72 1019.0
20260906131004 18 160 12.9 12.9 0.00 0.00 0.00 72 1019.0
20260906130004 18 160 12.9 22.5 0.00 0.00 0.00 72 1019.0
20260906124504 20 210 22.5 22.5 0.00 0.00 0.00 56 1020.0
20260906122503 20 210 22.5 22.5 0.00 0.00 0.00 56 1020.0
20260906122004 20 210 22.5 22.5 0.00 0.00 0.00 56 1020.0
20260906121504 20 210 22.5 22.5 0.00 0.00 0.00 56 1020.0
20260906121004 20 210 22.5 22.5 0.00 0.00 0.00 56 1020.0
20260906120004 20 210 22.5 24.1 0.00 0.00 0.00 56 1020.0
20260906115504 18 200 24.1 24.1 0.00 0.00 0.00 59 1020.0
20260906115004 18 200 24.1 24.1 0.00 0.00 0.00 59 1020.0
20260906114504 18 200 24.1 24.1 0.00 0.00 0.00 59 1020.0
20260906113004 18 200 24.1 24.1 0.00 0.00 0.00 59 1020.0
20260906112005 18 200 24.1 24.1 0.00 0.00 0.00 59 1020.0
20260906110004 18 200 24.1 24.1 0.00 0.00 0.00 59 1020.0
20260906105004 20 180 20.9 20.9 0.00 0.00 0.00 56 1020.0
20260906104004 20 180 20.9 20.9 0.00 0.00 0.00 56 1020.0
20260906103504 20 180 20.9 20.9 0.00 0.00 0.00 56 1020.0
20260906103003 20 180 20.9 20.9 0.00 0.00 0.00 56 1020.0
20260906102504 20 180 20.9 20.9 0.00 0.00 0.00 56 1020.0
20260906102004 20 180 20.9 20.9 0.00 0.00 0.00 56 1020.0
20260906100504 20 180 20.9 20.9 0.00 0.00 0.00 56 1020.0
20260906093504 17 180 16.1 16.1 0.00 0.00 0.00 63 1021.0
20260906093004 17 180 16.1 16.1 0.00 0.00 0.00 63 1021.0
20260906092004 17 180 16.1 16.1 0.00 0.00 0.00 63 1021.0
20260906091504 17 180 16.1 16.1 0.00 0.00 0.00 63 1021.0
20260906090504 17 180 16.1 16.1 0.00 0.00 0.00 63 1021.0
20260906090004 17 180 16.1 16.1 0.00 0.00 0.00 63 1021.0
20260906084004 13 140 9.7 9.7 0.00 0.00 0.00 87 1021.0
20260906083504 13 140 9.7 9.7 0.00 0.00 0.00 87 1021.0
20260906082504 13 140 9.7 9.7 0.00 0.00 0.00 87 1021.0
20260906082004 13 140 9.7 9.7 0.00 0.00 0.00 87 1021.0
20260906081504 13 140 9.7 9.7 0.00 0.00 0.00 87 1021.0
20260906080504 13 140 9.7 9.7 0.00 0.00 0.00 87 1021.0
20260906074504 13 120 8.0 8.0 0.00 0.00 0.00 82 1021.0
20260906073004 13 120 8.0 8.0 0.00 0.00 0.00 82 1021.0
20260906072504 13 120 8.0 8.0 0.00 0.00 0.00 82 1021.0
20260906071504 13 120 8.0 8.0 0.00 0.00 0.00 82 1021.0
20260906070504 13 120 8.0 14.5 0.00 0.00 0.00 82 1021.0
20260906070004 13 120 8.0 14.5 0.00 0.00 0.00 82 1021.0
20260906063504 13 260 14.5 14.5 0.00 0.00 0.00 71 1024.0
20260906062504 13 260 14.5 14.5 0.00 0.00 0.00 71 1024.0
20260906061504 13 260 14.5 14.5 0.00 0.00 0.00 71 1024.0
20260906060504 13 260 14.5 14.5 0.00 0.00 0.00 71 1024.0
20260906060007 13 260 14.5 14.5 0.00 0.00 0.00 71 1024.0